DateTimeUTC,F1_A11,F1_S11,BsB_S11,BsG_S11,BsR_S11,BbsB_S11,BbsG_S11,BbsR_S11,BaB_A11,BaG_A11,BaR_A11,Tu_S11,T_S11,Uu_S11,U_S11,P_S11,T1_A11
2021-04-25T10:00:00Z,00000200,21000000,,,,,,,-000.10,-000.05,0000.67,16.7,23.9,00.2,00.1,0679.8,31.0
2021-04-25T10:01:00Z,00000200,21000000,,,,,,,0000.06,-000.02,-000.44,16.7,23.9,,00.0,0679.8,31.0
2021-04-25T10:02:00Z,00000200,21000000,,,,,,,-000.01,0000.14,0000.21,16.7,23.9,,00.0,0679.9,31.0
2021-04-25T10:03:00Z,00000200,61000000,,,,,,,0000.38,0000.29,0000.21,16.7,24.0,,00.0,0679.9,31.0
2021-04-25T10:04:00Z,00000200,41000000,0000.62,0000.14,0000.20,-000.19,0000.02,-000.20,-000.09,-000.10,-000.21,17.0,23.8,00.3,00.2,0681.1,31.0
2021-04-25T10:05:00Z,00000200,01000000,-000.32,-000.03,0000.06,-000.17,-000.04,-000.02,0000.05,0000.05,0000.03,17.0,23.8,00.4,00.2,0681.2,31.0
2021-04-25T10:06:00Z,00000200,01000000,0000.31,0000.34,-000.09,-000.17,0000.35,0000.13,-000.07,0000.05,0000.39,17.0,23.7,00.4,00.3,0681.2,31.0
2021-04-25T10:07:00Z,00000200,01000000,-000.31,0000.07,-000.14,-000.16,0000.23,-000.05,0000.24,0000.13,-000.04,17.0,23.7,00.5,00.3,0681.2,31.0
2021-04-25T10:08:00Z,00000200,01000000,0000.23,0000.04,0000.28,-000.52,0000.05,0000.06,0000.16,0000.24,-000.07,16.9,23.7,00.5,00.3,0681.2,31.0
2021-04-25T10:09:00Z,00000200,01000000,-000.18,0000.30,0000.48,-000.18,0000.28,0000.11,0001.97,0001.80,0001.39,16.9,23.7,00.8,00.5,0681.2,31.0
2021-04-25T10:10:00Z,00000200,01000000,0000.08,0000.20,0000.20,-000.37,0000.08,0000.23,-001.36,-001.50,-000.77,16.9,23.7,01.0,00.6,0681.3,31.0
2021-04-25T10:11:00Z,00000200,01000000,0000.34,0000.08,-000.39,-000.22,0000.18,-000.14,-000.08,0000.05,-000.14,16.9,23.7,00.6,00.4,0681.3,31.0
2021-04-25T10:12:00Z,00000200,01000000,-000.11,0000.19,-000.18,0000.00,-000.10,-000.16,-000.29,0000.01,0000.06,16.9,23.7,00.5,00.4,0681.3,31.0
2021-04-25T10:13:00Z,00000200,01000000,-000.32,0000.10,-000.41,0000.16,0000.02,0000.01,0000.26,0000.17,0000.06,16.9,23.7,00.7,00.5,0681.3,31.0
2021-04-25T10:14:00Z,00000200,01000000,0000.50,-000.22,-000.16,-000.32,-000.06,-000.10,0000.31,-000.12,-000.06,16.9,23.7,00.7,00.5,0681.3,31.0
2021-04-25T10:15:00Z,00000200,01000000,0000.10,-000.01,-000.13,-000.24,0000.20,-000.18,0000.20,0000.60,0000.57,16.9,23.6,00.7,00.4,0681.3,31.0
2021-04-25T10:16:00Z,00000200,01000000,0000.15,-000.08,0000.05,-000.23,0000.05,0000.07,0000.04,-000.09,-000.33,17.0,23.7,00.8,00.5,0681.4,31.0
2021-04-25T10:17:00Z,00000200,01000000,-000.15,0000.03,0000.03,0000.19,0000.02,0000.09,0000.21,0000.11,0000.22,17.0,23.7,00.8,00.5,0681.4,31.0
2021-04-25T10:18:00Z,00000200,01000000,0000.36,0000.12,0000.15,0000.27,0000.05,-000.04,-000.30,-000.03,-000.12,17.1,23.7,00.8,00.5,0681.4,31.0
2021-04-25T10:19:00Z,00000200,01000000,-000.32,-000.03,0000.11,0000.10,-000.13,-000.09,0000.35,0000.41,0000.21,17.1,23.7,00.9,00.6,0681.4,31.0
2021-04-25T10:20:00Z,00000200,01000000,-000.10,0000.13,-000.29,-000.48,0000.15,-000.14,0000.35,-000.03,0000.26,17.0,23.7,00.9,00.6,0681.4,31.0
2021-04-25T10:21:00Z,00000200,01000000,-000.01,0000.12,0000.13,-000.56,-000.03,0000.04,-000.08,-000.07,-000.06,17.0,23.7,01.0,00.6,0681.3,31.0
2021-04-25T10:22:00Z,00000200,01000000,-000.05,0000.31,0000.05,-000.36,0000.12,-000.01,0000.25,0000.57,0000.25,17.0,23.7,01.0,00.7,0681.3,31.0
2021-04-25T10:23:00Z,00000200,01000000,-000.37,-000.05,-000.21,-000.16,0000.07,-000.18,0000.29,0000.11,0000.16,17.0,23.7,01.1,00.7,0681.3,31.0
2021-04-25T10:24:00Z,00000200,01000000,-000.06,0000.11,-000.18,0000.05,-000.00,0000.07,0000.17,0000.01,0000.19,17.0,23.7,01.1,00.7,0681.3,31.0
2021-04-25T10:25:00Z,00000200,01000000,0000.52,0000.09,0000.02,0000.12,-000.02,-000.34,0000.23,0000.48,0000.03,17.0,23.7,01.1,00.7,0681.3,31.0
2021-04-25T10:26:00Z,00000200,01000000,0000.46,-000.07,0000.11,-000.47,-000.07,0000.07,0000.22,0000.10,0000.46,17.0,23.7,01.3,00.9,0681.3,31.0
2021-04-25T10:27:00Z,00000200,01000000,0000.53,0000.05,0000.12,0000.01,-000.01,0000.12,0000.41,0000.39,0000.07,17.0,23.7,01.4,00.9,0681.3,31.0
2021-04-25T10:28:00Z,00000200,01000000,0000.68,0000.17,-000.15,0000.09,-000.09,-000.03,0000.52,0000.43,0000.45,17.0,23.7,01.5,01.0,0681.3,31.0
2021-04-25T10:29:00Z,00000200,01000000,0000.14,-000.05,0000.01,-000.34,0000.32,0000.13,0000.24,0000.01,0000.23,17.0,23.7,01.6,01.1,0681.3,31.0
2021-04-25T10:30:00Z,00000200,01000000,0000.06,0000.12,-000.11,0000.74,0000.04,0000.00,0000.21,0000.24,0000.24,17.0,23.7,01.7,01.2,0681.3,31.0
2021-04-25T10:31:00Z,00000200,01000000,0000.50,0000.26,-000.09,0000.12,0000.07,-000.11,0000.38,0000.60,-000.03,17.1,23.7,01.9,01.2,0681.3,31.0
2021-04-25T10:32:00Z,00000200,00000000,0000.19,0000.01,0000.10,-000.12,-000.01,-000.06,0000.41,0000.07,0000.25,17.1,23.7,01.8,01.2,0681.3,31.0
2021-04-25T10:33:00Z,00000200,00000000,-000.06,0000.10,-000.20,-000.06,0000.11,-000.40,0000.25,0000.36,0000.60,17.1,23.7,02.0,01.3,0681.3,31.0
2021-04-25T10:34:00Z,00000200,00000000,-000.06,0000.00,-000.13,-000.43,-000.08,-000.08,-000.19,-000.19,-000.25,17.1,23.7,02.0,01.3,0681.3,31.0
2021-04-25T10:35:00Z,00000200,00000000,-000.16,-000.11,-000.00,-000.21,-000.05,-000.01,0000.18,-000.17,0000.00,17.1,23.7,02.0,01.4,0681.3,31.0
2021-04-25T10:36:00Z,00000200,00000000,0000.15,0000.28,-000.20,-000.31,0000.08,-000.16,-000.09,0000.31,0000.21,17.1,23.7,02.0,01.3,0681.3,31.0
2021-04-25T10:37:00Z,00000200,00000000,0000.00,0000.09,0000.04,-000.16,-000.02,0000.34,0000.04,-000.01,-000.18,17.1,23.7,02.0,01.3,0681.3,31.0
2021-04-25T10:38:00Z,00000200,00000000,0000.17,0000.03,-000.17,-000.28,-000.02,-000.24,0000.40,0000.15,0000.19,17.1,23.7,02.1,01.4,0681.3,31.0
2021-04-25T10:39:00Z,00000200,00000000,-000.40,-000.07,-000.29,-000.21,-000.01,-000.14,0000.19,0000.39,0000.12,17.1,23.7,02.2,01.5,0681.2,31.0
2021-04-25T10:40:00Z,00000200,00000000,-000.10,-000.10,-000.20,-000.62,0000.17,-000.00,0000.21,0000.40,0000.43,17.1,23.7,02.3,01.5,0681.2,31.0
2021-04-25T10:41:00Z,00000200,00000000,-000.23,0000.16,-000.27,-000.29,0000.20,0000.06,0000.17,-000.01,0000.04,17.1,23.7,02.4,01.6,0681.3,31.0
2021-04-25T10:42:00Z,00000200,00000000,-000.21,-000.28,-000.32,-000.36,0000.32,0000.08,0000.27,-000.10,0000.15,17.1,23.7,02.5,01.6,0681.2,31.0
2021-04-25T10:43:00Z,00000200,00000000,0000.09,0000.24,0000.06,0000.41,-000.03,-000.00,0000.12,0000.60,0000.12,17.0,23.7,02.5,01.6,0681.2,31.0
2021-04-25T10:44:00Z,00000200,00000000,-000.11,-000.00,0000.15,0000.15,0000.16,0000.01,0000.01,-000.05,-000.11,17.0,23.7,02.4,01.6,0681.3,31.0
2021-04-25T10:45:00Z,00000200,00000000,0000.01,0000.28,-000.14,0000.19,0000.00,0000.08,0000.47,0000.39,0000.44,17.0,23.7,02.6,01.7,0681.3,31.0
2021-04-25T10:46:00Z,00000200,00000000,0000.13,0000.19,-000.05,0000.08,0000.26,-000.10,0000.25,0000.36,0000.66,17.0,23.7,02.7,01.8,0681.3,31.0
2021-04-25T10:47:00Z,00000200,00000000,-000.03,0000.10,-000.17,0000.50,0000.08,0000.07,0000.29,-000.05,-000.17,17.0,23.7,02.8,01.8,0681.3,31.0
2021-04-25T10:48:00Z,00000200,00000000,-000.04,0000.28,-000.18,-000.16,0000.02,-000.32,0000.04,-000.13,-000.00,17.0,23.6,02.8,01.8,0681.3,31.0
2021-04-25T10:49:00Z,00000200,00000000,-000.26,0000.16,-000.20,-000.30,-000.10,-000.17,-000.57,-000.19,-000.18,17.0,23.7,02.6,01.7,0681.3,31.0
2021-04-25T10:50:00Z,00000200,00000000,0000.28,-000.11,-000.26,-000.68,0000.16,-000.10,-000.44,-000.19,-000.31,17.0,23.7,02.5,01.7,0681.3,31.0
2021-04-25T10:51:00Z,00000200,00000000,0000.37,0000.09,-000.20,-000.03,0000.28,-000.15,-000.37,-000.04,-000.25,17.0,23.6,02.4,01.6,0681.3,31.0
2021-04-25T10:52:00Z,00000200,00000000,0000.02,0000.10,-000.20,-000.08,-000.17,0000.05,0000.32,-000.14,0000.14,17.0,23.6,02.4,01.6,0681.3,31.0
2021-04-25T10:53:00Z,00000200,00000000,-000.08,0000.07,-000.12,-000.05,0000.19,0000.15,0000.04,-000.31,-000.10,17.0,23.6,02.4,01.6,0681.3,31.0
2021-04-25T10:54:00Z,00000200,00000000,-000.53,0000.04,0000.09,0000.11,-000.08,-000.06,-000.09,0000.39,0000.18,17.0,23.6,02.2,01.5,0681.3,31.0
2021-04-25T10:55:00Z,00000200,00000000,0000.26,0000.37,-000.00,-000.11,0000.09,-000.05,0000.16,-000.20,-000.07,17.0,23.6,02.3,01.5,0681.4,31.0
2021-04-25T10:56:00Z,00000200,00000000,-000.00,0000.10,-000.02,0000.22,-000.17,-000.13,-000.23,-000.24,-000.05,17.0,23.6,02.3,01.5,0681.4,31.0
2021-04-25T10:57:00Z,00000200,40000000,,,,,,,-000.97,-000.68,-001.06,17.0,23.7,02.0,01.3,0681.3,31.0
2021-04-25T10:58:00Z,00000200,60000000,,,,,,,0000.28,-000.06,0000.43,16.8,23.8,01.7,01.1,0680.5,31.0
2021-04-25T10:59:00Z,00000200,20000000,,,,,,,0000.43,0000.58,0000.12,16.7,23.9,01.7,01.1,0680.5,31.0
